Weather History for Cody, WY

Change the Weather History Date:

Friday, November 30, 2012

  Actual Average Record
Temperature  
Mean Temperature 46 °F -  
Max Temperature 55 °F 38 °F 64 °F (1999)
Min Temperature 37 °F 17 °F -10 °F (1985)
Degree Days  
Heating Degree Days 19    
Moisture  
Dew Point 29 °F    
Average Humidity 51    
Maximum Humidity 70    
Minimum Humidity 38    
Precipitation  
Precipitation 0.00 in - - ()
Sea Level Pressure  
Sea Level Pressure 29.77 in    
Wind  
Wind Speed 10 mph (SSW)    
Max Wind Speed 16 mph    
Max Gust Speed 25 mph    
Visibility 10 miles    
Events      
Averages and records for this station are not official NWS values.
T = Trace of Precipitation, MM = Missing Value Source: NWS Daily Summary

Daily Weather History Graph

Daily Weather History Graph

Search for Another Location

Airport:

Trip Planner

Search our weather history database for the weather conditions in past years. The results will help you decide how hot, cold, wet, or windy it might be!

Date:

Astronomy

Nov. 30, 2012 Rise Set
Actual Time 7:31 AM MST 4:37 PM MST
Civil Twilight 6:59 AM MST 5:10 PM MST
Nautical Twilight 6:22 AM MST 5:46 PM MST
Astronomical Twilight 5:47 AM MST 6:21 PM MST
Moon 6:36 PM MST (11/30) 9:05 AM MST (11/30)
Length of Visible Light 10h 11m
Length of Day
9h 05m
Waning Gibbous, 96% of the Moon is Illuminated
Nov 30
Waning Gibbous
Dec 6
Last Quarter
Dec 13
New
Dec 19
First Quarter
Dec 28
Full

Hourly Weather History & Observations

Time (MST) Temp. Windchill Dew Point Humidity Pressure Visibility Wind Dir Wind Speed Gust Speed Precip Events Conditions
12:15 AM 39.2 °F 30.8 °F 24.8 °F 56% 29.89 in 10.0 mi SSW 15.0 mph - N/A   Clear
12:35 AM 42.8 °F 35.4 °F 24.8 °F 49% 29.89 in 10.0 mi SSW 15.0 mph - N/A   Clear
12:55 AM 42.8 °F 36.6 °F 24.8 °F 49% 29.88 in 10.0 mi SW 11.5 mph - N/A   Clear
1:15 AM 42.8 °F 35.4 °F 24.8 °F 49% 29.88 in 10.0 mi SSW 15.0 mph - N/A   Clear
1:35 AM 42.8 °F 36.2 °F 24.8 °F 49% 29.86 in 10.0 mi SW 12.7 mph - N/A   Clear
1:55 AM 46.4 °F 41.1 °F 28.4 °F 50% 29.86 in 10.0 mi WSW 11.5 mph 17.3 mph N/A   Clear
2:15 AM 48.2 °F - 26.6 °F 43% 29.87 in 10.0 mi SW 16.1 mph 25.3 mph N/A   Clear
2:35 AM 51.8 °F - 26.6 °F 38% 29.88 in 10.0 mi SSW 8.1 mph 21.9 mph N/A   Clear
2:55 AM 48.2 °F - 26.6 °F 43% 29.87 in 10.0 mi SSW 4.6 mph - N/A   Clear
3:15 AM 46.4 °F 43.5 °F 26.6 °F 46% 29.87 in 10.0 mi SSW 5.8 mph - N/A   Partly Cloudy
3:35 AM 44.6 °F 40.2 °F 26.6 °F 49% 29.86 in 10.0 mi SSW 8.1 mph - N/A   Mostly Cloudy
3:55 AM 42.8 °F 38.0 °F 26.6 °F 53% 29.85 in 10.0 mi South 8.1 mph - N/A   Overcast
4:15 AM 48.2 °F - 26.6 °F 43% 29.84 in 10.0 mi South 8.1 mph - N/A   Overcast
4:35 AM 48.2 °F - 26.6 °F 43% 29.84 in 10.0 mi SSW 13.8 mph - N/A   Mostly Cloudy
4:55 AM 48.2 °F - 26.6 °F 43% 29.84 in 10.0 mi SSW 12.7 mph - N/A   Partly Cloudy
5:15 AM 46.4 °F 40.1 °F 26.6 °F 46% 29.84 in 10.0 mi SSW 15.0 mph - N/A   Clear
5:35 AM 39.2 °F 31.2 °F 24.8 °F 56% 29.84 in 10.0 mi South 13.8 mph - N/A   Clear
5:55 AM 39.2 °F 31.6 °F 26.6 °F 61% 29.82 in 10.0 mi South 12.7 mph - N/A   Clear
6:15 AM 39.2 °F 31.2 °F 26.6 °F 61% 29.82 in 10.0 mi South 13.8 mph - N/A   Clear
6:35 AM 37.4 °F 28.5 °F 26.6 °F 65% 29.81 in 10.0 mi South 15.0 mph - N/A   Clear
6:55 AM 41.0 °F 34.3 °F 26.6 °F 57% 29.81 in 10.0 mi South 11.5 mph - N/A   Clear
7:15 AM 44.6 °F 38.4 °F 26.6 °F 49% 29.81 in 10.0 mi South 12.7 mph 20.7 mph N/A   Clear
7:55 AM 41.0 °F 35.2 °F 24.8 °F 53% 29.81 in 10.0 mi South 9.2 mph - N/A   Clear
8:15 AM 41.0 °F 34.7 °F 26.6 °F 57% 29.82 in 10.0 mi South 10.4 mph - N/A   Clear
8:35 AM 42.8 °F 40.1 °F 26.6 °F 53% 29.81 in 10.0 mi South 4.6 mph - N/A   Clear
8:55 AM 42.8 °F 39.3 °F 28.4 °F 57% 29.80 in 10.0 mi SSE 5.8 mph - N/A   Clear
9:15 AM 44.6 °F 40.2 °F 26.6 °F 49% 29.79 in 10.0 mi SE 8.1 mph - N/A   Clear
9:35 AM 44.6 °F 40.7 °F 28.4 °F 53% 29.79 in 10.0 mi SSE 6.9 mph - N/A   Clear
10:15 AM 48.2 °F - 30.2 °F 50% 29.78 in 10.0 mi SSE 6.9 mph - N/A   Clear
10:35 AM 50.0 °F - 30.2 °F 47% 29.77 in 10.0 mi SSE 4.6 mph - N/A   Scattered Clouds
10:55 AM 51.8 °F - 30.2 °F 44% 29.76 in 10.0 mi SSW 4.6 mph - N/A   Scattered Clouds
11:15 AM 51.8 °F - 30.2 °F 44% 29.75 in 10.0 mi South 4.6 mph - N/A   Partly Cloudy
11:35 AM 51.8 °F - 28.4 °F 41% 29.73 in 10.0 mi SSE 11.5 mph - N/A   Clear
11:55 AM 51.8 °F - 28.4 °F 41% 29.72 in 10.0 mi SSE 9.2 mph - N/A   Clear
12:15 PM 51.8 °F - 28.4 °F 41% 29.72 in 10.0 mi South 8.1 mph - N/A   Clear
12:35 PM 51.8 °F - 28.4 °F 41% 29.71 in 10.0 mi South 6.9 mph - N/A   Clear
12:55 PM 55.4 °F - 30.2 °F 38% 29.69 in 10.0 mi WSW 6.9 mph - N/A   Clear
1:15 PM 55.4 °F - 30.2 °F 38% 29.68 in 10.0 mi SW 6.9 mph - N/A   Clear
1:35 PM 55.4 °F - 30.2 °F 38% 29.68 in 10.0 mi SW 5.8 mph - N/A   Partly Cloudy
1:55 PM 55.4 °F - 30.2 °F 38% 29.67 in 10.0 mi North 3.5 mph - N/A   Mostly Cloudy
2:15 PM 55.4 °F - 30.2 °F 38% 29.67 in 10.0 mi WSW 10.4 mph 20.7 mph N/A   Mostly Cloudy
2:35 PM 55.4 °F - 30.2 °F 38% 29.67 in 10.0 mi WSW 11.5 mph 17.3 mph N/A   Scattered Clouds
3:35 PM 53.6 °F - 30.2 °F 41% 29.68 in 10.0 mi North 4.6 mph - N/A   Partly Cloudy
3:55 PM 53.6 °F - 30.2 °F 41% 29.68 in 10.0 mi East 4.6 mph - N/A   Clear
4:15 PM 51.8 °F - 30.2 °F 44% 29.70 in 10.0 mi North 4.6 mph - N/A   Clear
4:35 PM 51.8 °F - 30.2 °F 44% 29.71 in 10.0 mi WNW 8.1 mph - N/A   Clear
4:55 PM 51.8 °F - 32.0 °F 47% 29.71 in 10.0 mi SSE 3.5 mph 19.6 mph N/A   Clear
5:15 PM 50.0 °F - 33.8 °F 54% 29.71 in 10.0 mi SW 4.6 mph - N/A   Clear
5:35 PM 48.2 °F - 33.8 °F 58% 29.71 in 10.0 mi SE 3.5 mph - N/A   Clear
5:55 PM 48.2 °F - 33.8 °F 58% 29.70 in 10.0 mi SSE 10.4 mph 18.4 mph N/A   Clear
6:15 PM 48.2 °F - 33.8 °F 58% 29.71 in 10.0 mi West 9.2 mph 16.1 mph N/A   Clear
6:35 PM 48.2 °F - 33.8 °F 58% 29.71 in 10.0 mi West 9.2 mph 19.6 mph N/A   Clear
6:55 PM 48.2 °F - 33.8 °F 58% 29.71 in 10.0 mi SSW 9.2 mph - N/A   Clear
7:15 PM 48.2 °F - 33.8 °F 58% 29.72 in 10.0 mi WSW 4.6 mph - N/A   Clear
7:35 PM 46.4 °F 42.4 °F 33.8 °F 62% 29.73 in 10.0 mi SSW 8.1 mph - N/A   Clear
7:55 PM 44.6 °F 38.8 °F 32.0 °F 61% 29.73 in 10.0 mi SSW 11.5 mph - N/A   Clear
8:15 PM 46.4 °F 44.3 °F 33.8 °F 62% 29.74 in 10.0 mi WSW 4.6 mph - N/A   Clear
8:35 PM 46.4 °F 44.3 °F 33.8 °F 62% 29.74 in 10.0 mi West 4.6 mph - N/A   Scattered Clouds
9:15 PM 42.8 °F 39.3 °F 32.0 °F 66% 29.75 in 10.0 mi South 5.8 mph - N/A   Mostly Cloudy
9:35 PM 42.8 °F 40.1 °F 32.0 °F 66% 29.75 in 10.0 mi SSW 4.6 mph - N/A   Overcast
10:15 PM 44.6 °F 40.2 °F 33.8 °F 66% 29.74 in 10.0 mi WSW 8.1 mph - N/A   Overcast
10:35 PM 44.6 °F 40.7 °F 33.8 °F 66% 29.74 in 10.0 mi West 6.9 mph - N/A   Mostly Cloudy
11:15 PM 42.8 °F 39.3 °F 33.8 °F 70% 29.74 in 10.0 mi SSE 5.8 mph - N/A   Scattered Clouds
11:35 PM 42.8 °F 38.0 °F 32.0 °F 66% 29.74 in 10.0 mi SSW 8.1 mph - N/A   Overcast
11:55 PM 42.8 °F 38.0 °F 33.8 °F 70% 29.75 in 10.0 mi South 8.1 mph - N/A   Mostly Cloudy